This is the latest recevied weather packets stored in our database for station/object N2QDK-2. If no packets are shown the sender has not sent any weather packets the latest 10 day(s).
| Time | Temp. | Humidity | Pressure | Rain* | Wind** | Luminosity | Snow |
|---|---|---|---|---|---|---|---|
| 1777729517 | 6.11° C | 69% | 1014.7 hPa | 0 mm | - | - | - |
| 1777728917 | 5.56° C | 72% | 1014.9 hPa | 0 mm | - | - | - |
| 1777727716 | 5.56° C | 71% | 1015 hPa | 0 mm | - | - | - |
| 1777727116 | 5.56° C | 73% | 1015.1 hPa | 0 mm | - | - | - |
| 1777726516 | 5° C | 77% | 1015.2 hPa | 0 mm | - | - | - |
| 1777725916 | 4.44° C | 77% | 1015.2 hPa | 0 mm | - | - | - |
| 1777725317 | 4.44° C | 78% | 1015.3 hPa | 0 mm | - | - | - |
| 1777724716 | 4.44° C | 80% | 1015.2 hPa | 0 mm | - | - | - |
| 1777724117 | 4.44° C | 80% | 1015.2 hPa | 0 mm | - | - | - |
| 1777723516 | 3.89° C | 82% | 1015.1 hPa | 0 mm | - | - | - |
| 1777722916 | 3.89° C | 82% | 1015.2 hPa | 0 mm | - | - | - |
| 1777722316 | 3.89° C | 84% | 1015.1 hPa | 0 mm | - | - | - |
| 1777721716 | 3.33° C | 85% | 1015.1 hPa | 0 mm | - | - | - |
| 1777721116 | 3.33° C | 86% | 1015 hPa | 0 mm | - | - | - |
| 1777720516 | 2.78° C | 87% | 1015 hPa | 0 mm | - | - | - |
| 1777719916 | 2.78° C | 88% | 1015 hPa | 0 mm | - | - | - |
| 1777719316 | 2.22° C | 88% | 1014.9 hPa | 0 mm | - | - | - |
| 1777718716 | 2.22° C | 89% | 1014.8 hPa | 0 mm | - | - | - |
| 1777718116 | 2.22° C | 88% | 1014.6 hPa | 0 mm | - | - | - |
| 1777717516 | 2.22° C | 88% | 1014.6 hPa | 0 mm | - | - | - |
| 1777716916 | 2.22° C | 87% | 1014.4 hPa | 0 mm | - | - | - |
| 1777716316 | 2.22° C | 87% | 1014.3 hPa | 0 mm | - | - | - |
| 1777715716 | 2.78° C | 86% | 1014.4 hPa | 0 mm | - | - | - |
| 1777715116 | 2.78° C | 85% | 1014.3 hPa | 0 mm | - | - | - |
| 1777714516 | 2.78° C | 85% | 1014.2 hPa | 0 mm | - | - | - |
* Rain latest hour (hover to see other rain measurements)
** Current wind speed in m/s (hover to see current wind gust speed)